User: anonymous   Login
Location: Unspecified
(0.0000°N, 0.0000°E)
Time: 19:10:56
(UTC+00:00)
Language:

NAVSTAR 64 (USA 206) - Orbit

View from above orbital plane
View from above orbital plane
View from above satellite
View from above satellite

Ground track
Ground track

The orbit data is extracted from the following two-line orbital elements,

1 35752U 09043A   14332.49143174  .00000041  00000-0  00000+0 0  9796
2 35752 054.2482 197.2878 0039223 019.9388 245.0136 02.00556507 38741
Epoch (UTC): 28 November 2014 11:47:39
Eccentricity: 0.0039223
inclination: 54.2482°
perigee height: 20078 km
apogee height: 20287 km
right ascension of ascending node: 197.2878°
argument of perigee: 19.9388°
revolutions per day: 2.00556507
mean anomaly at epoch: 245.0136°
orbit number at epoch: 3874

The dashed part of the orbit path shows where the satellite is in the earth's shadow,  

DLR